Вернуться в каталог

HULIANWANG DIGUI-115

АктивенСвязьPO
NORAD 66954·PAYLOAD·🇨🇳 China

Запущен Dec 8, 2025 с Taiyuan Satellite Launch Center

Loading…

Ближайшие Пролёты (ближайшие 24 часа)

TLE

СвежийSource: Space-Track

Эпоха: Sep 14, 2026, 10:22 UTC

1 66954U 25287B   26257.43241543 -.00000069  00000-0 -19463-3 0  9995
2 66954  86.4897 252.2331 0001326  82.6543 277.4742 13.24396880 37155

Отслеживайте HULIANWANG DIGUI-115 в реальном времени с AllMySat

Download on the App Store